DECAYED

STARLINK-1341, 45534 (Decayed)

Orbit data source: Space-Track

STARLINK-1341, 45534 was a payload satellite owned by SpaceX/Seattle (US) in LEO that was launched on Wed, 22 Apr 2020 UTC via an FALCON 9 launch vehicle from the Air Force Eastern Test Range (AFETR). Payload-class satellites include a variety of spacecraft equipped with specific instruments for various scientific and technological missions. These include communications satellites like Starlink; space stations such as the ISS; scientific satellites like the Hubble; Earth observation satellites from companies like Planet Labs, Umbra, and HawkEye 360; GPS; miniature CubeSats for education and research; and military/defense satellites.

Not visible in the next 10 days
Identifier
45534, 2020-025D
Orbit
Decayed
Country
Flag of USUS
Related business
Manufacturer
SpaceX/Seattle
Mission
Decayed Commercial Communications
Bus & Motor
STARLINK, Unknown motor
Mass
260 kg wet, ~248 kg dry
Launch date (UTC)
2020-04-22 (5 years ago)
Launch vehicle
FALCON 9
Launch site
Air Force Eastern Test Range (AFETR)
Object type
Payload
Rocket body
Debris
Shape & HBR
Box + 1 Pan, 4.4 m
Radar Cross Section
13.562 m², Large (>1 m²)

Expand to show TLE details & history
Last TLE update: 7 months ago

TLE from 7 months ago
0 STARLINK-1341
1 45534U 20025D   25055.43787074  .04292105  12053-4  89690-3 0  9990
2 45534  53.0256 312.9274 0007722 209.9078 324.9146 16.30148902268138
Epoch: 2025-02-24T10:30Z
TLE epoch observation values (Epoch: 2025-02-24T10:30:32.031Z)
Latitude
4.11844°
Longitude
177.64823°
Altitude
188.471 km
Speed
7.797 km/s
True Right ascension
08h 39m 21s
True Declination
4° 05' 30"
Sunlit
Object was in full shadow at epoch
Visualization orbit readout
Latitude
Unknown
Longitude
Unknown
Altitude
Unknown
Speed
Unknown
Apparent Right ascension
Unknown
Apparent Declination
Unknown
Sunlit
N/A
Visualization observer readout
Local Sidereal Time
23:15:24
Azimuth
Unknown
Elevation
Unknown
Doppler factor
Unknown
Orbital elements
Apogee altitude
197.503 km
Perigee altitude
187.356 km
Semi-major axis
6,570.566 km
Eccentricity
0.00077
Inclination
53.0256°
RAAN
312.9274°
Arg. of periapsis
209.9078°
True anomaly
324.8637°
Mean anomaly
324.9146°
Eccentric anomaly
324.88915°
Mean motion
4.07511 °/min
Orbital period
88.34 mins
BSTAR
0.0008969
Loading maneuver chart data...
Computing Atmospheric mass density...

Documentation

Showing up to 5 results
|